Weather History for KSUX - June, 2014

Change the Weather History Date:

Monday, June 9, 2014

  Actual Average Record
Temperature  
Mean Temperature 62 °F 69 °F  
Max Temperature 66 °F 81 °F 100 °F (2006)
Min Temperature 58 °F 57 °F 40 °F (1915)
Degree Days  
Heating Degree Days 3 1  
Month to date heating degree days 10 15  
Since 1 June heating degree days 10 15  
Since 1 July heating degree days 7236 6849  
Cooling Degree Days 0 5  
Month to date cooling degree days 34 37  
Year to date cooling degree days 155 101  
Since 1 June cooling degree days 34 37  
Growing Degree Days 12 (Base 50)    
Moisture  
Dew Point 56 °F    
Average Humidity 75    
Maximum Humidity 97    
Minimum Humidity 52    
Precipitation  
Precipitation 0.07 in 0.13 in 2.64 in (1945)
Month to date precipitation 1.92 1.22  
Year to date precipitation 7.17 11.20  
Snow  
Snow 0.00 in 0.00 in 0.00 in ()
Month to date snowfall 0.0 0.0  
Since 1 June snowfall 0.0 0.0  
Since 1 July snowfall 23.8 34.8  
Snow Depth 0.00 in    
Sea Level Pressure  
Sea Level Pressure 29.95 in    
Wind  
Wind Speed 9 mph (NE)    
Max Wind Speed 20 mph    
Max Gust Speed 24 mph    
Visibility 9 miles    
Events Rain    
T = Trace of Precipitation, MM = Missing Value Source: NWS Daily Summary

Daily Weather History Graph

Daily Weather History Graph

Search for Another Location

Airport or City:

Trip Planner

Search our weather history database for the weather conditions in past years. The results will help you decide how hot, cold, wet, or windy it might be!

Date:

Astronomy

Jun. 09, 2014 Rise Set
Actual Time 5:48 AM CDT 9:01 PM CDT
Civil Twilight 5:14 AM CDT 9:35 PM CDT
Nautical Twilight 4:29 AM CDT 10:20 PM CDT
Astronomical Twilight 3:35 AM CDT 11:14 PM CDT
Moon 5:19 PM CDT (6/9) 3:20 AM CDT (6/9)
Length of Visible Light 16h 21m
Length of Day
15h 12m
Waxing Gibbous, 85% of the Moon is Illuminated
Jun 9
Waxing Gibbous
Jun 12
Full
Jun 19
Last Quarter
Jun 27
New
Jul 5
First Quarter

Hourly Weather History & Observations

Time (CDT) Temp. Dew Point Humidity Pressure Visibility Wind Dir Wind Speed Gust Speed Precip Events Conditions
12:37 AM 64.0 °F 46.9 °F 54% 29.96 in 10.0 mi ENE 8.1 mph - N/A   Mostly Cloudy
12:52 AM 64.0 °F 46.9 °F 54% 29.95 in 10.0 mi ENE 10.4 mph - N/A   Overcast
1:19 AM 64.0 °F 46.9 °F 54% 29.95 in 10.0 mi ENE 10.4 mph - N/A   Overcast
1:52 AM 63.0 °F 48.0 °F 58% 29.95 in 10.0 mi NE 8.1 mph - N/A   Overcast
2:25 AM 63.0 °F 48.9 °F 60% 29.95 in 10.0 mi NE 9.2 mph - N/A   Overcast
2:32 AM 63.0 °F 48.9 °F 60% 29.94 in 10.0 mi ENE 6.9 mph - N/A   Overcast
2:52 AM 63.0 °F 50.0 °F 63% 29.93 in 10.0 mi ENE 8.1 mph - N/A   Overcast
3:52 AM 62.1 °F 52.0 °F 70% 29.93 in 10.0 mi ENE 6.9 mph - N/A   Overcast
4:52 AM 62.1 °F 55.0 °F 78% 29.93 in 10.0 mi ENE 6.9 mph - N/A   Overcast
5:47 AM 62.6 °F 57.2 °F 82% 29.93 in 10.0 mi East 6.9 mph - 0.00 in   Overcast
5:52 AM 63.0 °F 57.9 °F 84% 29.91 in 10.0 mi East 6.9 mph - 0.00 in   Overcast
6:52 AM 63.0 °F 57.9 °F 84% 29.91 in 10.0 mi East 8.1 mph - N/A   Overcast
7:15 AM 63.0 °F 57.9 °F 84% 29.93 in 10.0 mi ESE 9.2 mph - N/A   Overcast
7:52 AM 62.1 °F 59.0 °F 90% 29.93 in 5.0 mi ESE 8.1 mph - 0.03 in Rain Light Rain
8:52 AM 62.1 °F 60.1 °F 93% 29.96 in 10.0 mi ESE 4.6 mph - 0.01 in   Overcast
9:52 AM 60.8 °F 59.0 °F 94% 29.98 in 2.5 mi NNE 10.4 mph - N/A   Overcast
10:27 AM 60.1 °F 57.9 °F 93% 29.98 in 2.5 mi NNE 13.8 mph - 0.01 in Rain Light Rain
10:52 AM 59.0 °F 57.0 °F 93% 29.98 in 2.5 mi NNE 11.5 mph - 0.02 in Rain Light Rain
11:03 AM 59.0 °F 55.9 °F 90% 29.99 in 3.0 mi NE 17.3 mph - 0.00 in Rain Light Rain
11:19 AM 57.2 °F 55.4 °F 94% 29.99 in 3.0 mi NE 15.0 mph - N/A Rain Light Rain
11:52 AM 60.1 °F 57.9 °F 93% 29.99 in 5.0 mi ENE 11.5 mph - 0.01 in   Overcast
12:52 PM 60.1 °F 57.9 °F 93% 29.98 in 9.0 mi ENE 16.1 mph - N/A   Overcast
1:52 PM 62.1 °F 57.9 °F 86% 29.96 in 10.0 mi ENE 12.7 mph - N/A   Overcast
2:52 PM 62.6 °F 57.2 °F 82% 29.96 in 10.0 mi NE 8.1 mph - N/A   Overcast
2:56 PM 64.0 °F 57.9 °F 80% 29.96 in 10.0 mi NE 9.2 mph - N/A   Overcast
3:48 PM 64.4 °F 59.0 °F 83% 29.96 in 10.0 mi ENE 6.9 mph - N/A   Overcast
3:52 PM 64.9 °F 59.0 °F 81% 29.95 in 10.0 mi ENE 6.9 mph - N/A   Overcast
4:52 PM 66.0 °F 59.0 °F 78% 29.93 in 10.0 mi NNE 12.7 mph - N/A   Overcast
5:52 PM 66.0 °F 60.1 °F 81% 29.93 in 10.0 mi NNE 11.5 mph - N/A   Overcast
6:52 PM 64.9 °F 59.0 °F 81% 29.93 in 10.0 mi NNE 11.5 mph - N/A   Overcast
7:52 PM 66.0 °F 59.0 °F 78% 29.93 in 10.0 mi NNE 9.2 mph - N/A   Mostly Cloudy
8:52 PM 64.9 °F 59.0 °F 81% 29.93 in 10.0 mi NNE 6.9 mph - N/A   Clear
9:52 PM 62.1 °F 59.0 °F 90% 29.95 in 10.0 mi North 4.6 mph - N/A   Mostly Cloudy
10:52 PM 62.1 °F 59.0 °F 90% 29.96 in 10.0 mi NNW 6.9 mph - N/A   Overcast
11:52 PM 62.1 °F 59.0 °F 90% 29.95 in 9.0 mi North 5.8 mph - N/A   Overcast